2022-098E (53448 NORAD) Tracking and Keplerian Element Data

This shows tracking and keplerian element data for the satellite.

Feedback or suggestion? Click here.




ElementValue
Catalog53448
Name2022-098E
Epoch Orbit722
Epoch Day270.19576449
Epoch Year2022
RAAN5.6896
Inclination97.5339
Eccentricity0.0013538
Argument of Perigee102.0243
Mean Anonmoly345.1874
Mean Motion15.09454275
Decay Rate4.236E-05
L11 53448U 22098E 22270.19576449 .00004236 00000+0 26807-3 0 9993
L22 53448 97.5339 5.6896 0013538 102.0243 345.1874 15.09454275 7223

Live tracking and technical data element details for 2022-098E (NORAD 53448). 2022-098E can be tracked NOW for your location showing map with azimuth and elevation plus other details from your city location.

Track the satellite on the map from your city or location and see movement details for azimuth, elevation, latitude, longitude, range, height, and movement on the map or in text.







IsCatalogInMostPopularTable: catalog: 53448, numindb: 3
Update: records affected: 1



GetName: 53448 2022-098E

Hit Count: updated at: Wed, 28 Sep 2022 22:41:05 GMT